Weather History for Crestview, FL

Change the Weather History Date:

Tuesday, December 31, 2013

  Actual Average Record
Temperature  
Mean Temperature 47 °F -  
Max Temperature 50 °F - - ()
Min Temperature 44 °F - - ()
Degree Days  
Heating Degree Days 18    
Moisture  
Dew Point 41 °F    
Average Humidity 83    
Maximum Humidity 94    
Minimum Humidity 71    
Precipitation  
Precipitation 0.00 in - - ()
Sea Level Pressure  
Sea Level Pressure 30.33 in    
Wind  
Wind Speed 6 mph (North)    
Max Wind Speed 13 mph    
Max Gust Speed -    
Visibility 10 miles    
Events Rain    
T = Trace of Precipitation, MM = Missing Value Source: NWS Daily Summary

Daily Weather History Graph

Daily Weather History Graph

Search for Another Location

Airport:

Trip Planner

Search our weather history database for the weather conditions in past years. The results will help you decide how hot, cold, wet, or windy it might be!

Date:

Astronomy

Dec. 31, 2013 Rise Set
Actual Time 6:43 AM CST 4:55 PM CST
Civil Twilight 6:16 AM CST 5:21 PM CST
Nautical Twilight 5:46 AM CST 5:51 PM CST
Astronomical Twilight 5:17 AM CST 6:21 PM CST
Moon 5:38 AM CST (12/31) 4:27 PM CST (12/31)
Length of Visible Light 11h 05m
Length of Day
10h 12m
Waning Crescent, 1% of the Moon is Illuminated
Dec 31
Waning Crescent
Jan 1
New
Jan 7
First Quarter
Jan 15
Full
Jan 23
Last Quarter

Hourly Weather History & Observations

Time (CST) Temp. Windchill Dew Point Humidity Pressure Visibility Wind Dir Wind Speed Gust Speed Precip Events Conditions
12:58 AM 50.2 °F - 48.6 °F 94% 30.29 in 10.0 mi NNW 2.3 mph - N/A   Partly Cloudy
1:58 AM 50.2 °F - 45.5 °F 84% 30.31 in 10.0 mi NW 6.9 mph - N/A   Partly Cloudy
2:58 AM 49.1 °F - 46.6 °F 91% 30.30 in 10.0 mi North 5.8 mph - N/A   Scattered Clouds
3:03 AM 50.0 °F - 46.4 °F 87% 30.29 in 10.0 mi North 5.8 mph - N/A   Mostly Cloudy
3:58 AM 49.1 °F - 46.8 °F 92% 30.30 in 10.0 mi North 5.8 mph - N/A   Overcast
4:13 AM 48.2 °F - 46.4 °F 93% 30.29 in 10.0 mi North 6.9 mph - N/A   Overcast
4:23 AM 48.2 °F - 46.4 °F 93% 30.27 in 10.0 mi NE 4.6 mph - N/A   Overcast
4:43 AM 48.2 °F - 44.6 °F 87% 30.29 in 10.0 mi North 8.1 mph - N/A   Scattered Clouds
4:58 AM 48.0 °F - 44.8 °F 89% 30.29 in 10.0 mi North 8.1 mph - N/A   Scattered Clouds
5:08 AM 48.2 °F - 44.6 °F 87% 30.29 in 10.0 mi NNW 8.1 mph - N/A   Mostly Cloudy
5:38 AM 48.2 °F - 44.6 °F 87% 30.30 in 10.0 mi North 8.1 mph - N/A   Scattered Clouds
5:58 AM 47.3 °F - 44.2 °F 89% 30.31 in 10.0 mi North 6.9 mph - N/A   Scattered Clouds
6:03 AM 46.4 °F 41.9 °F 44.6 °F 93% 30.31 in 10.0 mi North 9.2 mph - N/A   Mostly Cloudy
6:08 AM 46.4 °F 41.5 °F 44.6 °F 93% 30.31 in 10.0 mi North 10.4 mph - N/A   Scattered Clouds
6:33 AM 46.4 °F 43.5 °F 42.8 °F 87% 30.33 in 10.0 mi NNW 5.8 mph - N/A   Mostly Cloudy
6:58 AM 46.8 °F - 42.6 °F 85% 30.34 in 10.0 mi North 6.9 mph - N/A   Overcast
7:03 AM 46.4 °F 42.9 °F 42.8 °F 87% 30.33 in 10.0 mi North 6.9 mph - N/A   Overcast
7:38 AM 46.4 °F 41.5 °F 39.2 °F 76% 30.35 in 10.0 mi North 10.4 mph - N/A   Scattered Clouds
7:58 AM 45.5 °F 41.8 °F 39.6 °F 80% 30.37 in 10.0 mi North 6.9 mph - N/A   Partly Cloudy
8:55 AM 44.6 °F 40.2 °F 38.7 °F 80% 30.38 in 10.0 mi North 8.1 mph - N/A   Overcast
9:55 AM 45.3 °F 41.1 °F 38.7 °F 78% 30.40 in 10.0 mi North 8.1 mph - N/A   Overcast
10:55 AM 45.9 °F 41.2 °F 37.6 °F 73% 30.40 in 10.0 mi North 9.2 mph - N/A   Overcast
11:56 AM 46.0 °F 42.5 °F 37.9 °F 73% 30.36 in 10.0 mi North 6.9 mph - N/A   Overcast
12:55 PM 46.6 °F - 37.8 °F 71% 30.35 in 10.0 mi North 12.7 mph - N/A   Overcast
1:55 PM 46.2 °F 42.2 °F 37.8 °F 72% 30.32 in 10.0 mi North 8.1 mph - N/A   Overcast
2:55 PM 46.0 °F 43.1 °F 37.9 °F 73% 30.33 in 10.0 mi NNE 5.8 mph - N/A   Overcast
3:29 PM 46.4 °F 42.9 °F 39.2 °F 76% 30.32 in 6.0 mi NNE 6.9 mph - N/A Rain Light Rain
3:55 PM 45.5 °F 43.2 °F 39.4 °F 79% 30.33 in 6.0 mi North 4.6 mph - 0.00 in   Overcast
4:55 PM 45.3 °F 42.3 °F 39.6 °F 80% 30.35 in 10.0 mi North 5.8 mph - N/A   Overcast
5:58 PM 45.0 °F 40.6 °F 39.6 °F 81% 30.34 in 10.0 mi North 8.1 mph - 0.00 in   Light Drizzle
5:59 PM 44.6 °F 40.2 °F 39.2 °F 81% 30.34 in 10.0 mi North 8.1 mph - N/A   Clear
6:58 PM 45.0 °F 40.6 °F 39.0 °F 80% 30.37 in 10.0 mi North 8.1 mph - 0.00 in   Clear
7:58 PM 45.0 °F 41.8 °F 38.5 °F 78% 30.37 in 10.0 mi North 5.8 mph - N/A   Partly Cloudy
8:58 PM 44.6 °F 43.1 °F 38.8 °F 80% 30.36 in 10.0 mi NNE 3.5 mph - N/A   Partly Cloudy
9:04 PM 44.6 °F 43.1 °F 39.2 °F 81% 30.35 in 10.0 mi NNE 3.5 mph - N/A Rain Light Rain
9:17 PM 44.6 °F 43.1 °F 39.2 °F 81% 30.35 in 10.0 mi East 3.5 mph - N/A   Clear
9:39 PM 44.6 °F - 39.2 °F 81% 30.36 in 10.0 mi NE 2.3 mph - N/A Rain Light Rain
9:41 PM 44.6 °F - 39.2 °F 81% 30.37 in 10.0 mi North 2.3 mph - N/A   Partly Cloudy
9:58 PM 44.6 °F - 39.7 °F 83% 30.37 in 10.0 mi NE 1.2 mph - 0.00 in   Scattered Clouds
10:58 PM 44.4 °F 41.2 °F 39.7 °F 84% 30.35 in 10.0 mi North 5.8 mph - N/A   Mostly Cloudy
11:58 PM 44.6 °F 43.1 °F 39.6 °F 82% 30.33 in 10.0 mi ENE 3.5 mph - N/A   Mostly Cloudy